Flag for China Weather past 2 weeks in Chongqing, Chongqing Municipality, China

Now
70 °F

Passing clouds.


Feels Like: 70 °F
Forecast: 65 / 72 °F
Wind: 3 mph from East

Location: Chongqing Airport

Current Time: Apr 21, 2015 at 9:51:58 AM

Latest Report: Apr 21, 2015 at 9:00 AM


Visibility: N/A

Pressure: 30.09 "Hg

Humidity: 57%

Dew point: 54 °F

Location of ChongqingLocation

Historic Weather in Chongqing — Graph

°F

Chongqing temperature yesterday

Maximum temperature yesterday: 77 °F (at 3:00 PM)
Minimum temperature yesterday: 57 °F (at 6:00 AM)
Average temperature yesterday: 67 °F

Past Weeks' High & Low Weather Summary

 TemperatureHumidityPressure
High86 °F (Apr 16, 5:00 PM)94% (Apr 6, 8:00 AM)30.39 "Hg (Apr 6, 8:00 AM)
Low50 °F (Apr 8, 4:00 AM)22% (Apr 13, 2:00 PM)29.45 "Hg (Apr 17, 4:00 PM)
Average64 °F67%30.00 "Hg
* Reported Apr 6 8:00 AM — Apr 21 8:00 AM, Chongqing, Weather by CustomWeather, © 2015

Note: Actual official high and low records may vary slightly from our data, if they occured in-between our weather recording intervals... More about our weather records

Advertising

Chongqing weather history for previous 24 hours

 ConditionsComfort  
Time TempWeatherWind HumidityBarometerVisibility
8:00 AM
Tue, Apr 21
66 °FSunny.1 mph64%30.07 "Hg10 mi
7:00 AM64 °FSunny.1 mph68%30.04 "Hg10 mi
6:00 AM64 °FClear.1 mph68%30.01 "Hg10 mi
5:00 AM66 °FClear.1 mph64%30.01 "Hg10 mi
4:00 AM66 °FPassing clouds.3 mph60%30.01 "HgN/A
3:00 AM66 °FClear.3 mph60%29.98 "Hg10 mi
2:00 AM66 °FClear.6 mph60%29.98 "Hg10 mi
1:00 AM66 °FClear.3 mph60%29.95 "Hg10 mi
12:00 AM66 °FClear.6 mph60%29.98 "Hg10 mi
11:00 PM
Mon, Apr 20
68 °FClear.8 mph56%29.95 "Hg10 mi
10:00 PM68 °FClear.8 mph56%29.95 "Hg10 mi
9:00 PM72 °FPassing clouds.6 mph47%29.92 "HgN/A
8:00 PM72 °FClear.6 mph50%29.89 "Hg10 mi
7:00 PM72 °FSunny.6 mph47%29.86 "Hg10 mi
6:00 PM73 °FPassing clouds.8 mph44%29.86 "HgN/A
5:00 PM75 °FScattered clouds.6 mph39%29.86 "HgN/A
4:00 PM75 °FScattered clouds.6 mph39%29.86 "HgN/A
3:00 PM77 °FScattered clouds.3 mph39%29.89 "HgN/A
2:00 PM73 °FScattered clouds.6 mph50%29.92 "HgN/A
1:00 PM73 °FPartly sunny.1 mph50%29.98 "HgN/A
12:00 PM72 °FPartly sunny.1 mph53%29.98 "HgN/A
11:00 AM70 °FPartly sunny.3 mph60%30.01 "HgN/A
10:00 AM68 °FScattered clouds.3 mph60%30.01 "HgN/A
9:00 AM64 °FSunny.1 mph73%30.01 "Hg10 mi
Weather by CustomWeather, © 2015

See weather overviewHow to use our weather pages